Location: *
(43.2048°N, 0.1612°E)
Time: 21:35:53
(UTC+00:00)

USA 229 - Pass Details

Date: 30 September 2023
Orbit: 905 x 1306 km, 63.4° (Epoch: 10 November)

Event Time Altitude Azimuth Distance (km) Brightness Sun altitude
Rises 04:31:20 0° 323° (NW) 3,982 6.4 -16.0°
Reaches altitude 10° 04:33:57 10° 325° (NW) 3,074 5.9 -15.5°
Maximum altitude 04:41:26 80° 53° (NE) 1,258 4.1 -14.2°
Drops below altitude 10° 04:49:28 10° 141° (SE) 3,289 6.7 -12.8°
Sets 04:52:21 0° 142° (SE) 4,274 7.3 -12.2°
